Regional Weather Roundup
Issued by NWS

Home | Current Version | Previous Version | Graphics & Text | Print | Product List | Glossary Off
Versions: 1 2 3 4 5 6 7 8 9 10 11 12 13 14 15 16 17 18 19 20 21 22 23 24 25 26 27 28 29 30 31 32 33 34 35 36 37 38 39 40 41 42 43 44 45 46 47 48 49 50

000
ASUS43 KDMX 251601
RWRIA

WEATHER ROUNDUP FOR IOWA
NATIONAL WEATHER SERVICE DES MOINES IA
1100 AM CDT TUE APR 25 2017

NOTE: "FAIR" INDICATES FEW OR NO CLOUDS BELOW 12,000 FEET WITH NO
SIGNIFICANT WEATHER AND/OR OBSTRUCTIONS TO VISIBILITY.

* - THESE STATIONS ARE NOT NWS STATIONS...THUS NOT UNDER NWS
QUALITY CONTROL.  THEY ALSO DO NOT REPORT WEATHER SUCH
AS PRECIPITATION OR FOG.

IAZ001>003-012>014-020>022-031>034-043>046-251700-
   NORTHWEST IOWA

CITY           SKY/WX    TMP DP  RH WIND       PRES   REMARKS
CARROLL *      PTSUNNY   50  46  87 NE8       29.54R
CHEROKEE *     LGT RAIN  42  42  97 N12       29.53R
DENISON *      CLOUDY    50  45  81 CALM      29.55R
LE MARS *      LGT RAIN  43  41  93 N18G25    29.53F
ORANGE CITY *  LGT RAIN  39  39 100 N18       29.53F WCI  30
SHELDON *      RAIN      41  39  93 N17       29.55F
SIOUX CITY     CLOUDY    44  43  96 N16       29.53R
SPENCER        RAIN      41  40  96 N14       29.59F FOG
STORM LAKE *   PTSUNNY   43  41  93 N20       29.52F
$$

IAZ055>058-069>071-079>083-090>094-251700-
   SOUTHWEST IOWA

CITY           SKY/WX    TMP DP  RH WIND       PRES   REMARKS
ATLANTIC *     CLOUDY    57  48  72 N14       29.47F
AUDUBON *      CLOUDY    52  48  87 N10       29.51F
CLARINDA *     CLOUDY    66  50  55 S8        29.47F
COUNCIL BLFS * MOSUNNY   54  46  76 N17       29.48F
CRESTON *      PTSUNNY   64  48  55 SE8G15    29.48F
HARLAN  *      CLOUDY    54  46  76 N15       29.53F
LAMONI         MOSUNNY   65  46  50 SE8       29.48F
RED OAK *      CLOUDY    64  50  59 NE7       29.46F
SHENANDOAH *   CLOUDY    64  50  59 N12       29.45F
$$

IAZ047>049-059>061-072>074-084-251700-
   CENTRAL IOWA

CITY           SKY/WX    TMP DP  RH WIND       PRES   REMARKS
AMES           CLOUDY    57  47  69 CALM      29.52R
ANKENY *       LGT RAIN  55  48  76 SE6       29.53R
BOONE *        CLOUDY    55  48  76 S8        29.53R
CHARITON *     MOSUNNY   66  48  52 S12       29.51R
DES MOINES     CLOUDY    60  46  59 S3        29.53R
GRINNELL*      DRIZZLE   59  44  56 SE12      29.53R
KNOXVILLE *    CLOUDY    63  45  51 S9        29.51R
MARSHALLTOWN   LGT RAIN  60  46  59 SE7       29.51F
NEWTON *       CLOUDY    59  45  58 S17       29.53R
PELLA *        CLOUDY    61  45  55 S10       29.54R
PERRY *        LGT RAIN  57  49  74 CALM      29.52R
$$

IAZ004>006-015-016-023>025-035-036-251700-
   NORTH CENTRAL IOWA

CITY           SKY/WX    TMP DP  RH WIND       PRES   REMARKS
ALGONA *       LGT RAIN  45  45 100 N13       29.57S
CLARION *      CLOUDY    54  50  87 N8        29.54R
ESTHERVILLE    CLOUDY    41  40  96 NW10      29.60R
FORT DODGE *   CLOUDY    48  39  71 N10       29.53F
MASON CITY     CLOUDY    59  43  55 SW7       29.55R
FOREST CITY *  RAIN      52  43  71 NW10      29.57R
WEBSTER CITY * LGT RAIN  55  48  76 N9G15     29.50F
IOWA FALLS *   LGT RAIN  58  46  64 CALM      29.53S
$$

IAZ007>011-017>019-026>030-037>042-050>054-066-251700-
   NORTHEAST IOWA

CITY           SKY/WX    TMP DP  RH WIND       PRES   REMARKS
CEDAR RAPIDS   CLOUDY    65  47  52 S10       29.56S
CHARLES CITY * CLOUDY    63  39  42 SE10      29.54R
CLINTON *      PTSUNNY   70  48  45 SE8       29.62S
DECORAH *      CLOUDY    64  41  42 S9        29.55S
DUBUQUE        CLOUDY    66  43  43 S13       29.60F
MONTICELLO *   PTSUNNY   70  43  37 SE12G18   29.58R
OELWEIN *      CLOUDY    68  45  42 S10       29.55S
WATERLOO       PTSUNNY   64  44  48 SE7       29.52F
$$

IAZ064-065-067-068-078-251700-
   EAST CENTRAL IOWA

CITY           SKY/WX    TMP DP  RH WIND       PRES   REMARKS
DAVENPORT      MOSUNNY   69  44  40 S12       29.61S
IOWA CITY      CLOUDY    66  47  50 SE8       29.58F
MUSCATINE *    CLOUDY    66  45  45 SE9       29.59F
QUAD CITIES    CLOUDY    70  45  40 S10       29.61R
$$

IAZ062-063-075>077-085>089-095>099-251700-
   SOUTHEAST IOWA

CITY           SKY/WX    TMP DP  RH WIND       PRES   REMARKS
BURLINGTON     CLOUDY    65  47  52 SE6       29.59F
FAIRFIELD *    CLOUDY    63  46  55 SE13G18   29.53F
FORT MADISON * CLOUDY    66  46  48 E7        29.58F
KEOKUK *       CLOUDY    66  48  52 SE9       29.57F
OSKALOOSA *      N/A     65  45  48 S20       29.52F
OTTUMWA        PTSUNNY   65  44  46 SE16      29.52F
WASHINGTON *   CLOUDY    64  46  52 SE14      29.56F
$$

ABBREVIATIONS USED IN REMARKS
   TC - TEMPERATURES IN CELSIUS
  WCI - WIND CHILL INDEX
   HX - HEAT INDEX
  VSB - VISIBILITY
$$




USA.gov is the U.S. government's official web portal to all federal, state and local government web resources and services.